QPF
0.06 0.07 0.02 0.01 0.01 0.00 0.00 0.00 0.00 0.00 0.01 0.02 0.02 0.01 0.01 0.01 0.00 0.00 0.00 0.00 0.00 0.00 0.00 0.00 0.00 0.00 0.00 0.00 0.00 0.00 0.00 0.00 0.00 0.00 0.00 0.00 0.00 0.00 0.00 0.00 0.00 0.00 0.00
0.09 0.12 0.06 0.07 0.06 0.02 0.00 0.00 0.00 0.00 0.00 0.01 0.01 0.01 0.00 0.00 0.00 0.00 0.00 0.00 0.00 0.00 0.00 0.00 0.00 0.00 0.00 0.00 0.00 0.00 0.00 0.00 0.00 0.00 0.00 0.00 0.00 0.00 0.00 0.00 0.00 0.00 0.00
0.10 0.13 0.10 0.13 0.10 0.05 0.03 0.01 0.00 0.00 0.01 0.00 0.00 0.00 0.00 0.00 0.00 0.00 0.00 0.00 0.00 0.00 0.00 0.00 0.00 0.00 0.00 0.00 0.00 0.00 0.00 0.00 0.00 0.00 0.00 0.00 0.00 0.00 0.00 0.00 0.00 0.00 0.00
0.04 0.06 0.06 0.09 0.09 0.09 0.06 0.03 0.03 0.03 0.02 0.01 0.00 0.00 0.00 0.00 0.00 0.00 0.00 0.00 0.00 0.00 0.00 0.00 0.00 0.00 0.00 0.00 0.00 0.00 0.00 0.00 0.00 0.00 0.00 0.00 0.00 0.01 0.00 0.00 0.00 0.00 0.00
0.01 0.02 0.04 0.07 0.10 0.10 0.07 0.06 0.05 0.04 0.02 0.02 0.01 0.01 0.00 0.00 0.00 0.00 0.00 0.00 0.00 0.00 0.00 0.00 0.00 0.00 0.00 0.00 0.00 0.00 0.00 0.00 0.00 0.00 0.00 0.00 0.00 0.01 0.01 0.01 0.00 0.00 0.00
0.01 0.01 0.02 0.04 0.08 0.09 0.07 0.06 0.04 0.02 0.01 0.01 0.00 0.00 0.00 0.00 0.00 0.00 0.00 0.00 0.00 0.00 0.00 0.00 0.00 0.00 0.00 0.00 0.00 0.00 0.00 0.00 0.00 0.00 0.00 0.00 0.00 0.00 0.00 0.00 0.00 0.00 0.00
0.01 0.01 0.01 0.02 0.05 0.07 0.07 0.06 0.04 0.03 0.01 0.00 0.00 0.00 0.00 0.00 0.00 0.00 0.00 0.00 0.00 0.00 0.00 0.00 0.00 0.00 0.00 0.00 0.00 0.00 0.00 0.00 0.00 0.00 0.00 0.00 0.00 0.00 0.00 0.00 0.00 0.00 0.00
0.01 0.01 0.01 0.02 0.05 0.07 0.08 0.07 0.04 0.02 0.00 0.00 0.00 0.00 0.00 0.00 0.00 0.00 0.00 0.00 0.00 0.00 0.00 0.00 0.00 0.00 0.00 0.00 0.00 0.00 0.00 0.00 0.00 0.00 0.00 0.00 0.00 0.00 0.00 0.00 0.00 0.00 0.00
0.03 0.02 0.02 0.04 0.07 0.08 0.07 0.05 0.02 0.00 0.00 0.00 0.00 0.00 0.00 0.00 0.00 0.00 0.00 0.00 0.00 0.00 0.00 0.00 0.00 0.00 0.00 0.00 0.00 0.00 0.00 0.00 0.00 0.00 0.00 0.00 0.00 0.00 0.00 0.00 0.01 0.02 0.02
0.03 0.03 0.04 0.06 0.07 0.05 0.04 0.02 0.00 0.00 0.00 0.00 0.00 0.00 0.00 0.00 0.00 0.00 0.00 0.00 0.00 0.00 0.00 0.00 0.00 0.00 0.00 0.00 0.00 0.00 0.00 0.00 0.00 0.00 0.00 0.01 0.00 0.00 0.00 0.00 0.01 0.01 0.02
0.02 0.02 0.03 0.04 0.05 0.03 0.02 0.01 0.00 0.00 0.00 0.00 0.00 0.00 0.00 0.00 0.00 0.00 0.00 0.00 0.00 0.00 0.00 0.00 0.00 0.00 0.00 0.00 0.00 0.00 0.00 0.00 0.00 0.00 0.01 0.01 0.01 0.01 0.01 0.00 0.01 0.01 0.03
0.02 0.03 0.03 0.04 0.04 0.03 0.02 0.01 0.01 0.01 0.00 0.00 0.00 0.00 0.00 0.00 0.00 0.00 0.00 0.00 0.00 0.00 0.00 0.00 0.00 0.00 0.00 0.00 0.00 0.00 0.00 0.00 0.00 0.01 0.01 0.01 0.01 0.01 0.01 0.01 0.01 0.02 0.04
0.02 0.04 0.04 0.04 0.04 0.04 0.03 0.02 0.02 0.02 0.01 0.01 0.00 0.00 0.00 0.00 0.00 0.00 0.00 0.00 0.00 0.00 0.00 0.00 0.00 0.00 0.00 0.00 0.00 0.00 0.00 0.01 0.01 0.01 0.02 0.02 0.02 0.01 0.01 0.01 0.01 0.03 0.04
0.03 0.03 0.03 0.04 0.04 0.04 0.03 0.03 0.02 0.01 0.00 0.00 0.00 0.00 0.00 0.00 0.00 0.00 0.00 0.00 0.00 0.00 0.00 0.00 0.00 0.00 0.00 0.00 0.00 0.00 0.01 0.01 0.01 0.01 0.02 0.01 0.01 0.01 0.01 0.01 0.02 0.05 0.07
0.04 0.03 0.02 0.04 0.03 0.02 0.01 0.01 0.00 0.00 0.00 0.00 0.00 0.00 0.00 0.00 0.00 0.00 0.00 0.00 0.00 0.00 0.00 0.00 0.00 0.00 0.00 0.00 0.00 0.00 0.00 0.00 0.01 0.01 0.01 0.01 0.01 0.01 0.01 0.02 0.04 0.06 0.08
0.02 0.02 0.04 0.05 0.03 0.01 0.01 0.00 0.00 0.00 0.00 0.00 0.00 0.00 0.00 0.00 0.00 0.00 0.00 0.00 0.00 0.00 0.00 0.00 0.00 0.00 0.00 0.00 0.00 0.00 0.00 0.00 0.00 0.01 0.00 0.00 0.00 0.00 0.01 0.01 0.03 0.04 0.05
0.03 0.06 0.09 0.07 0.03 0.02 0.01 0.01 0.00 0.00 0.00 0.00 0.00 0.00 0.00 0.00 0.00 0.00 0.00 0.00 0.00 0.00 0.00 0.00 0.00 0.00 0.00 0.00 0.00 0.00 0.00 0.01 0.01 0.01 0.01 0.01 0.00 0.01 0.01 0.02 0.02 0.02 0.02
0.08 0.11 0.11 0.07 0.05 0.04 0.03 0.02 0.00 0.00 0.00 0.00 0.00 0.00 0.00 0.00 0.00 0.00 0.00 0.00 0.00 0.00 0.00 0.00 0.00 0.00 0.00 0.00 0.00 0.00 0.00 0.01 0.01 0.01 0.01 0.01 0.01 0.01 0.02 0.02 0.01 0.01 0.01
0.11 0.14 0.14 0.12 0.09 0.07 0.05 0.02 0.00 0.00 0.00 0.00 0.00 0.00 0.00 0.00 0.00 0.00 0.00 0.00 0.00 0.00 0.00 0.00 0.00 0.00 0.00 0.00 0.00 0.00 0.01 0.01 0.00 0.01 0.01 0.02 0.01 0.02 0.03 0.02 0.01 0.01 0.01
0.11 0.16 0.18 0.15 0.12 0.08 0.03 0.01 0.00 0.00 0.00 0.00 0.00 0.00 0.00 0.00 0.00 0.00 0.00 0.00 0.00 0.00 0.00 0.00 0.00 0.01 0.01 0.00 0.00 0.01 0.01 0.00 0.01 0.01 0.02 0.03 0.03 0.03 0.03 0.01 0.01 0.01 0.01
0.11 0.19 0.22 0.18 0.10 0.03 0.01 0.00 0.00 0.00 0.00 0.00 0.00 0.00 0.00 0.00 0.00 0.00 0.00 0.00 0.00 0.00 0.00 0.01 0.01 0.01 0.00 0.01 0.01 0.01 0.01 0.01 0.02 0.02 0.02 0.02 0.03 0.02 0.01 0.01 0.01 0.02 0.03
0.13 0.16 0.13 0.07 0.03 0.01 0.00 0.00 0.00 0.00 0.00 0.00 0.00 0.00 0.00 0.00 0.00 0.00 0.00 0.00 0.00 0.00 0.00 0.01 0.01 0.00 0.00 0.00 0.01 0.01 0.01 0.01 0.02 0.02 0.02 0.03 0.03 0.02 0.01 0.02 0.02 0.04 0.05
0.06 0.05 0.03 0.01 0.00 0.00 0.00 0.00 0.00 0.00 0.00 0.00 0.00 0.00 0.00 0.00 0.00 0.00 0.00 0.00 0.00 0.01 0.01 0.01 0.00 0.00 0.00 0.00 0.01 0.01 0.01 0.01 0.02 0.02 0.04 0.04 0.04 0.04 0.04 0.05 0.04 0.04 0.05
0.01 0.00 0.00 0.00 0.00 0.00 0.00 0.00 0.00 0.00 0.00 0.00 0.00 0.00 0.00 0.00 0.00 0.00 0.00 0.00 0.00 0.01 0.01 0.00 0.00 0.00 0.00 0.00 0.00 0.00 0.01 0.01 0.02 0.02 0.05 0.08 0.10 0.10 0.09 0.08 0.07 0.06 0.06
0.00 0.00 0.00 0.00 0.00 0.00 0.00 0.00 0.00 0.00 0.00 0.00 0.00 0.00 0.00 0.00 0.00 0.00 0.00 0.00 0.00 0.00 0.00 0.00 0.00 0.01 0.01 0.01 0.01 0.01 0.01 0.01 0.02 0.02 0.04 0.08 0.11 0.11 0.09 0.08 0.07 0.06 0.06
0.00 0.00 0.00 0.00 0.00 0.00 0.00 0.00 0.00 0.00 0.00 0.00 0.00 0.00 0.00 0.00 0.00 0.00 0.00 0.00 0.00 0.00 0.01 0.01 0.01 0.02 0.03 0.03 0.01 0.01 0.01 0.02 0.03 0.02 0.05 0.10 0.12 0.12 0.11 0.09 0.07 0.05 0.05
MSLP
1012.19 1012.92 1013.53 1013.99 1014.27 1014.42 1014.49 1014.54 1014.65 1014.86 1015.19 1015.63 1016.16 1016.72 1017.28 1017.78 1018.19 1018.52 1018.75 1018.90 1019.00 1019.06 1019.10 1019.13 1019.16 1019.17 1019.18 1019.15 1019.10 1019.01 1018.87 1018.68 1018.45 1018.17 1017.84 1017.49 1017.13 1016.77 1016.43 1016.14 1015.91 1015.73 1015.62
1011.99 1012.79 1013.48 1013.98 1014.31 1014.48 1014.57 1014.64 1014.77 1015.02 1015.39 1015.87 1016.43 1017.02 1017.59 1018.08 1018.49 1018.79 1019.00 1019.15 1019.26 1019.34 1019.42 1019.48 1019.54 1019.58 1019.58 1019.54 1019.46 1019.33 1019.15 1018.93 1018.67 1018.39 1018.07 1017.73 1017.37 1017.00 1016.64 1016.30 1015.99 1015.74 1015.53
1011.63 1012.54 1013.31 1013.90 1014.28 1014.50 1014.62 1014.72 1014.88 1015.16 1015.56 1016.07 1016.65 1017.25 1017.81 1018.29 1018.68 1018.96 1019.16 1019.30 1019.42 1019.53 1019.64 1019.75 1019.84 1019.91 1019.92 1019.88 1019.78 1019.62 1019.42 1019.18 1018.93 1018.65 1018.36 1018.04 1017.71 1017.35 1016.97 1016.59 1016.22 1015.87 1015.56
1011.24 1012.26 1013.13 1013.80 1014.25 1014.51 1014.67 1014.81 1015.00 1015.30 1015.72 1016.24 1016.84 1017.44 1017.99 1018.46 1018.82 1019.08 1019.26 1019.41 1019.53 1019.67 1019.81 1019.96 1020.09 1020.18 1020.21 1020.17 1020.06 1019.90 1019.69 1019.45 1019.21 1018.95 1018.69 1018.42 1018.11 1017.77 1017.39 1016.97 1016.53 1016.09 1015.68
1010.95 1012.06 1013.02 1013.76 1014.27 1014.58 1014.77 1014.93 1015.15 1015.46 1015.89 1016.43 1017.03 1017.63 1018.17 1018.62 1018.96 1019.20 1019.37 1019.51 1019.64 1019.78 1019.95 1020.12 1020.27 1020.39 1020.43 1020.40 1020.30 1020.13 1019.93 1019.70 1019.47 1019.25 1019.03 1018.79 1018.51 1018.19 1017.80 1017.35 1016.86 1016.34 1015.83
1010.84 1012.02 1013.04 1013.83 1014.38 1014.72 1014.94 1015.11 1015.34 1015.66 1016.11 1016.65 1017.25 1017.84 1018.38 1018.82 1019.14 1019.36 1019.51 1019.63 1019.75 1019.88 1020.05 1020.23 1020.39 1020.51 1020.56 1020.54 1020.44 1020.27 1020.07 1019.86 1019.65 1019.45 1019.26 1019.05 1018.80 1018.50 1018.11 1017.64 1017.10 1016.52 1015.93
1010.94 1012.16 1013.21 1014.03 1014.59 1014.95 1015.17 1015.35 1015.59 1015.92 1016.36 1016.91 1017.51 1018.10 1018.63 1019.05 1019.35 1019.55 1019.67 1019.76 1019.85 1019.96 1020.10 1020.26 1020.40 1020.51 1020.56 1020.53 1020.42 1020.26 1020.06 1019.85 1019.65 1019.47 1019.29 1019.11 1018.88 1018.59 1018.21 1017.74 1017.18 1016.56 1015.92
1011.22 1012.45 1013.50 1014.31 1014.87 1015.23 1015.45 1015.64 1015.87 1016.21 1016.66 1017.20 1017.80 1018.38 1018.90 1019.30 1019.58 1019.75 1019.83 1019.88 1019.91 1019.97 1020.07 1020.18 1020.29 1020.36 1020.39 1020.34 1020.22 1020.05 1019.84 1019.63 1019.43 1019.25 1019.08 1018.91 1018.70 1018.42 1018.06 1017.59 1017.04 1016.41 1015.75
1011.59 1012.79 1013.82 1014.62 1015.17 1015.52 1015.75 1015.94 1016.18 1016.52 1016.96 1017.50 1018.09 1018.66 1019.15 1019.53 1019.78 1019.91 1019.95 1019.94 1019.91 1019.91 1019.93 1019.98 1020.03 1020.06 1020.05 1019.97 1019.83 1019.64 1019.42 1019.19 1018.98 1018.79 1018.62 1018.45 1018.25 1017.99 1017.65 1017.21 1016.68 1016.08 1015.43
1011.93 1013.11 1014.12 1014.89 1015.44 1015.80 1016.03 1016.24 1016.49 1016.82 1017.26 1017.79 1018.35 1018.89 1019.36 1019.71 1019.92 1020.00 1019.99 1019.92 1019.83 1019.75 1019.71 1019.69 1019.68 1019.65 1019.60 1019.48 1019.32 1019.11 1018.87 1018.62 1018.39 1018.17 1017.99 1017.80 1017.60 1017.36 1017.05 1016.66 1016.18 1015.62 1015.02
1012.19 1013.34 1014.32 1015.09 1015.65 1016.02 1016.28 1016.51 1016.77 1017.11 1017.53 1018.03 1018.56 1019.07 1019.49 1019.80 1019.96 1020.00 1019.94 1019.82 1019.67 1019.54 1019.43 1019.35 1019.28 1019.21 1019.12 1018.98 1018.79 1018.55 1018.29 1018.02 1017.75 1017.52 1017.30 1017.10 1016.90 1016.67 1016.39 1016.04 1015.62 1015.12 1014.58
1012.33 1013.47 1014.44 1015.22 1015.80 1016.21 1016.51 1016.76 1017.03 1017.36 1017.77 1018.23 1018.71 1019.16 1019.54 1019.80 1019.92 1019.93 1019.83 1019.67 1019.49 1019.32 1019.17 1019.05 1018.95 1018.84 1018.72 1018.56 1018.35 1018.10 1017.82 1017.52 1017.23 1016.96 1016.71 1016.48 1016.26 1016.03 1015.77 1015.46 1015.09 1014.66 1014.17
1012.43 1013.55 1014.53 1015.33 1015.94 1016.39 1016.72 1017.00 1017.28 1017.60 1017.97 1018.39 1018.81 1019.19 1019.51 1019.72 1019.82 1019.79 1019.69 1019.52 1019.33 1019.14 1018.98 1018.85 1018.73 1018.62 1018.49 1018.32 1018.11 1017.85 1017.55 1017.23 1016.91 1016.59 1016.30 1016.03 1015.79 1015.54 1015.28 1014.99 1014.65 1014.26 1013.81
1012.56 1013.68 1014.67 1015.48 1016.13 1016.61 1016.97 1017.27 1017.54 1017.83 1018.15 1018.50 1018.85 1019.17 1019.43 1019.60 1019.67 1019.64 1019.54 1019.39 1019.22 1019.06 1018.91 1018.79 1018.69 1018.59 1018.46 1018.30 1018.09 1017.83 1017.51 1017.17 1016.81 1016.45 1016.11 1015.79 1015.49 1015.21 1014.93 1014.63 1014.30 1013.92 1013.50
1012.84 1013.95 1014.93 1015.75 1016.41 1016.91 1017.28 1017.57 1017.82 1018.07 1018.32 1018.59 1018.87 1019.11 1019.32 1019.46 1019.52 1019.50 1019.43 1019.32 1019.20 1019.07 1018.97 1018.88 1018.80 1018.72 1018.61 1018.46 1018.26 1017.99 1017.67 1017.30 1016.90 1016.49 1016.09 1015.71 1015.35 1015.00 1014.67 1014.34 1013.98 1013.59 1013.16
1013.34 1014.41 1015.36 1016.17 1016.81 1017.30 1017.65 1017.91 1018.12 1018.30 1018.48 1018.67 1018.87 1019.05 1019.21 1019.32 1019.39 1019.40 1019.37 1019.32 1019.25 1019.18 1019.13 1019.08 1019.03 1018.97 1018.87 1018.73 1018.53 1018.25 1017.91 1017.51 1017.07 1016.61 1016.14 1015.69 1015.25 1014.83 1014.43 1014.03 1013.63 1013.20 1012.74
1014.07 1015.07 1015.97 1016.72 1017.32 1017.76 1018.06 1018.27 1018.41 1018.53 1018.63 1018.75 1018.87 1019.00 1019.12 1019.23 1019.30 1019.35 1019.38 1019.38 1019.37 1019.36 1019.34 1019.33 1019.30 1019.24 1019.15 1019.00 1018.79 1018.50 1018.13 1017.70 1017.21 1016.69 1016.15 1015.62 1015.09 1014.59 1014.11 1013.64 1013.18 1012.71 1012.22
1014.96 1015.88 1016.68 1017.35 1017.87 1018.23 1018.47 1018.61 1018.69 1018.73 1018.77 1018.81 1018.88 1018.97 1019.08 1019.19 1019.29 1019.38 1019.45 1019.51 1019.55 1019.57 1019.58 1019.58 1019.55 1019.48 1019.37 1019.20 1018.95 1018.63 1018.22 1017.75 1017.21 1016.63 1016.02 1015.41 1014.81 1014.23 1013.67 1013.14 1012.62 1012.10 1011.59
1015.90 1016.71 1017.40 1017.96 1018.37 1018.66 1018.82 1018.89 1018.91 1018.89 1018.88 1018.89 1018.93 1019.00 1019.10 1019.22 1019.35 1019.48 1019.59 1019.69 1019.76 1019.80 1019.82 1019.80 1019.75 1019.64 1019.49 1019.27 1018.97 1018.60 1018.14 1017.61 1017.02 1016.38 1015.72 1015.04 1014.38 1013.73 1013.12 1012.54 1011.98 1011.44 1010.92
1016.75 1017.43 1018.00 1018.45 1018.76 1018.97 1019.07 1019.09 1019.06 1019.02 1018.98 1018.98 1019.01 1019.09 1019.20 1019.35 1019.51 1019.67 1019.81 1019.93 1020.01 1020.05 1020.05 1020.00 1019.90 1019.74 1019.52 1019.23 1018.87 1018.43 1017.91 1017.33 1016.68 1015.99 1015.28 1014.56 1013.85 1013.17 1012.53 1011.92 1011.36 1010.83 1010.33
1017.41 1017.96 1018.41 1018.75 1018.99 1019.13 1019.19 1019.18 1019.15 1019.11 1019.09 1019.10 1019.15 1019.26 1019.40 1019.57 1019.76 1019.94 1020.10 1020.23 1020.31 1020.33 1020.30 1020.19 1020.03 1019.80 1019.50 1019.13 1018.70 1018.19 1017.61 1016.97 1016.27 1015.54 1014.79 1014.05 1013.32 1012.63 1011.99 1011.40 1010.86 1010.36 1009.91
1017.81 1018.25 1018.60 1018.87 1019.05 1019.15 1019.20 1019.21 1019.20 1019.20 1019.21 1019.27 1019.36 1019.51 1019.68 1019.89 1020.10 1020.30 1020.47 1020.59 1020.66 1020.66 1020.58 1020.42 1020.19 1019.88 1019.51 1019.06 1018.54 1017.96 1017.32 1016.62 1015.89 1015.13 1014.36 1013.61 1012.89 1012.22 1011.60 1011.05 1010.56 1010.13 1009.74
1017.97 1018.32 1018.61 1018.82 1018.98 1019.09 1019.16 1019.21 1019.25 1019.31 1019.39 1019.49 1019.64 1019.83 1020.04 1020.27 1020.50 1020.71 1020.88 1021.00 1021.04 1021.01 1020.90 1020.69 1020.40 1020.03 1019.58 1019.06 1018.47 1017.83 1017.13 1016.39 1015.62 1014.85 1014.08 1013.34 1012.64 1012.00 1011.43 1010.94 1010.51 1010.15 1009.85
1017.97 1018.26 1018.51 1018.71 1018.87 1019.01 1019.13 1019.24 1019.35 1019.47 1019.62 1019.78 1019.98 1020.19 1020.43 1020.68 1020.91 1021.12 1021.29 1021.40 1021.43 1021.38 1021.24 1021.00 1020.66 1020.24 1019.74 1019.16 1018.52 1017.82 1017.08 1016.31 1015.53 1014.75 1013.99 1013.27 1012.61 1012.02 1011.51 1011.07 1010.72 1010.43 1010.20
1017.91 1018.17 1018.40 1018.61 1018.80 1018.99 1019.17 1019.35 1019.53 1019.72 1019.91 1020.12 1020.34 1020.58 1020.82 1021.07 1021.30 1021.50 1021.66 1021.76 1021.78 1021.72 1021.56 1021.31 1020.95 1020.51 1019.97 1019.36 1018.69 1017.96 1017.20 1016.41 1015.62 1014.85 1014.11 1013.43 1012.81 1012.27 1011.81 1011.43 1011.14 1010.91 1010.72
1017.90 1018.15 1018.39 1018.62 1018.86 1019.10 1019.33 1019.57 1019.81 1020.04 1020.26 1020.49 1020.71 1020.94 1021.16 1021.39 1021.59 1021.78 1021.92 1022.01 1022.04 1021.98 1021.83 1021.58 1021.22 1020.78 1020.24 1019.62 1018.94 1018.21 1017.44 1016.66 1015.89 1015.14 1014.43 1013.78 1013.21 1012.71 1012.29 1011.96 1011.70 1011.50 1011.34
Thickness
5754 5749 5744 5742 5738 5734 5731 5729 5726 5721 5718 5713 5708 5701 5694 5690 5684 5676 5670 5666 5662 5658 5655 5653 5648 5645 5642 5636 5633 5628 5627 5623 5620 5615 5616 5616 5614 5611 5606 5600 5596 5593 5590
5745 5739 5737 5737 5734 5728 5725 5722 5719 5716 5713 5707 5700 5692 5685 5679 5672 5664 5659 5656 5652 5648 5645 5639 5638 5633 5628 5625 5620 5615 5612 5611 5606 5600 5598 5600 5602 5599 5595 5586 5580 5576 5574
5741 5733 5730 5730 5729 5724 5720 5716 5712 5707 5703 5696 5688 5679 5672 5667 5660 5653 5648 5644 5641 5637 5633 5629 5625 5620 5619 5615 5606 5599 5597 5594 5589 5585 5578 5578 5580 5572 5569 5564 5560 5557 5557
5743 5733 5726 5724 5722 5718 5713 5707 5702 5697 5691 5686 5680 5674 5667 5659 5649 5643 5638 5633 5628 5624 5620 5616 5611 5605 5603 5597 5593 5586 5579 5575 5572 5566 5558 5550 5546 5542 5546 5543 5542 5543 5543
5741 5730 5724 5720 5715 5710 5704 5698 5692 5686 5682 5675 5668 5662 5656 5648 5641 5633 5625 5620 5617 5611 5607 5602 5597 5591 5587 5580 5574 5568 5563 5560 5554 5547 5541 5534 5528 5524 5524 5528 5529 5532 5535
5734 5722 5717 5710 5704 5698 5692 5688 5681 5675 5670 5664 5658 5651 5643 5637 5630 5622 5616 5611 5607 5601 5595 5589 5583 5578 5572 5565 5559 5552 5550 5542 5534 5528 5525 5521 5516 5514 5514 5516 5518 5523 5526
5718 5709 5704 5698 5692 5685 5679 5673 5667 5662 5658 5653 5646 5640 5632 5626 5620 5613 5606 5598 5595 5590 5582 5577 5569 5563 5556 5550 5545 5539 5533 5528 5520 5514 5511 5508 5504 5502 5502 5504 5506 5509 5513
5705 5699 5694 5688 5680 5672 5666 5660 5654 5650 5646 5642 5636 5629 5621 5618 5611 5599 5592 5585 5581 5577 5568 5562 5556 5549 5543 5538 5532 5527 5522 5514 5507 5503 5499 5494 5492 5491 5491 5491 5491 5494 5497
5694 5688 5682 5677 5669 5660 5654 5649 5643 5638 5635 5632 5626 5617 5609 5602 5594 5585 5578 5575 5567 5562 5555 5549 5543 5537 5530 5525 5519 5515 5508 5503 5497 5494 5491 5486 5482 5480 5479 5475 5471 5471 5473
5684 5679 5672 5664 5656 5650 5644 5640 5635 5630 5625 5620 5612 5604 5596 5589 5580 5574 5566 5559 5553 5547 5541 5537 5532 5526 5520 5514 5507 5503 5500 5495 5490 5485 5480 5475 5473 5471 5468 5464 5459 5455 5454
5678 5671 5663 5654 5646 5641 5636 5632 5627 5621 5613 5606 5596 5588 5583 5575 5567 5561 5555 5548 5542 5536 5531 5526 5521 5516 5510 5504 5498 5492 5488 5485 5481 5477 5473 5468 5463 5460 5456 5451 5446 5442 5439
5672 5663 5654 5645 5639 5634 5629 5624 5617 5610 5600 5590 5581 5575 5568 5561 5554 5549 5542 5536 5530 5526 5522 5517 5512 5507 5503 5497 5491 5486 5481 5476 5471 5465 5459 5455 5451 5446 5441 5436 5433 5430 5428
5662 5651 5642 5636 5631 5625 5620 5612 5604 5596 5587 5577 5570 5563 5557 5550 5543 5536 5530 5524 5519 5515 5512 5507 5503 5499 5495 5489 5483 5476 5470 5465 5458 5451 5444 5440 5436 5432 5427 5422 5420 5419 5420
5649 5640 5632 5626 5620 5614 5607 5599 5590 5580 5572 5565 5559 5553 5546 5538 5531 5525 5520 5515 5511 5507 5503 5498 5493 5488 5483 5477 5469 5461 5455 5449 5443 5437 5431 5426 5422 5418 5414 5411 5408 5407 5409
5636 5628 5621 5613 5606 5600 5593 5584 5572 5563 5557 5554 5549 5542 5534 5527 5521 5516 5512 5507 5501 5497 5491 5486 5481 5475 5468 5457 5444 5438 5437 5434 5429 5423 5418 5413 5410 5406 5403 5401 5400 5401 5403
5627 5617 5607 5598 5590 5583 5576 5565 5556 5550 5546 5542 5537 5531 5523 5518 5513 5508 5502 5496 5490 5483 5477 5471 5466 5459 5450 5433 5423 5418 5421 5419 5416 5412 5407 5403 5400 5399 5397 5395 5394 5394 5398
5617 5604 5591 5581 5571 5564 5558 5550 5543 5539 5535 5530 5525 5520 5515 5510 5504 5498 5491 5483 5476 5469 5463 5457 5450 5442 5432 5419 5412 5408 5406 5407 5405 5402 5399 5397 5395 5391 5392 5393 5394 5396 5399
5602 5587 5573 5561 5552 5546 5541 5536 5533 5529 5525 5520 5515 5511 5506 5501 5492 5484 5476 5469 5463 5456 5450 5442 5434 5427 5421 5410 5403 5399 5399 5399 5398 5396 5392 5389 5388 5386 5385 5388 5392 5396 5400
5581 5567 5555 5545 5539 5534 5530 5528 5526 5520 5515 5509 5504 5499 5495 5488 5479 5470 5462 5454 5448 5441 5435 5429 5423 5417 5412 5403 5396 5391 5392 5393 5393 5391 5389 5386 5385 5384 5384 5386 5392 5398 5404
5557 5547 5538 5533 5528 5524 5523 5520 5515 5510 5505 5497 5491 5486 5481 5474 5465 5456 5447 5441 5434 5428 5423 5418 5413 5409 5404 5397 5390 5384 5387 5388 5388 5388 5388 5387 5385 5385 5386 5389 5395 5402 5410
5537 5530 5526 5523 5521 5518 5514 5509 5505 5498 5491 5486 5480 5474 5467 5460 5452 5444 5435 5427 5422 5416 5411 5408 5404 5400 5396 5392 5386 5381 5382 5381 5382 5386 5387 5387 5385 5386 5389 5392 5399 5406 5411
5521 5518 5517 5516 5512 5507 5503 5500 5493 5486 5481 5476 5470 5463 5456 5449 5442 5433 5425 5418 5411 5406 5400 5397 5394 5392 5389 5386 5382 5379 5378 5376 5379 5383 5385 5385 5386 5390 5395 5400 5406 5411 5417
5511 5512 5513 5510 5505 5501 5498 5492 5483 5478 5473 5467 5461 5453 5446 5437 5429 5423 5418 5411 5402 5395 5390 5387 5384 5384 5384 5382 5377 5377 5378 5378 5378 5381 5383 5386 5390 5395 5402 5408 5413 5419 5423
5511 5511 5510 5506 5501 5496 5490 5483 5476 5470 5465 5459 5451 5444 5437 5430 5420 5414 5409 5401 5392 5385 5382 5379 5377 5376 5375 5375 5372 5374 5377 5379 5380 5382 5386 5389 5393 5399 5404 5411 5416 5420 5422
5509 5507 5504 5500 5494 5488 5481 5474 5468 5463 5457 5449 5442 5436 5430 5422 5412 5404 5394 5387 5379 5371 5368 5367 5364 5364 5365 5365 5364 5367 5372 5375 5378 5381 5387 5392 5397 5402 5406 5411 5415 5418 5421
5502 5499 5496 5493 5487 5481 5474 5467 5460 5454 5448 5442 5435 5431 5422 5411 5404 5396 5387 5374 5369 5364 5360 5358 5356 5358 5358 5361 5365 5369 5372 5376 5379 5384 5388 5393 5397 5402 5406 5410 5412 5415 5417